Tracking 30160 objects as of 14-Feb-2025
HD Live streaming from Space Station
objects crossing your sky now

ARIANE 42P DEB

Track ARIANE 42P DEB now!
10-day predictions


NORAD ID: 44514
Int'l Code: 1992-052M
Perigee: 1,094.6 km
Apogee: 1,486.0 km
Inclination: 65.8 °
Period: 111.2 minutes
Semi major axis: 7661 km
RCS: Unknown
Launch date: August 10, 1992
Source: France (FR)
Launch site: FRENCH GUIANA (FRGUI)

Note: This is SATELLITE DEBRIS
Your satellite tracking list
Your tracking list is empty




NASA's NSSDC Master Catalog

Two Line Element Set (TLE):
1 44514U 92052M   25044.53315204  .00004802  00000-0  15035-1 0  9993
2 44514  65.7783  95.3915 0255451 218.3738 139.8869 12.94637758258407
Source of the keplerian elements: AFSPC